RH
50 48 45 42 43 43 45 43 40 44 44 42 39 41 40 38 35 38 38 30 24 14 13 12 14 18 26 34 77 89 81 66 55 35 23 17 13 11 9 12 21 26 35 36 34 28 27
59 58 55 55 56 57 52 42 34 25 26 39 44 41 47 48 41 33 28 26 19 17 17 14 14 19 21 43 69 84 78 46 24 20 17 13 10 9 9 13 22 36 54 50 50 40 33
70 64 61 58 55 53 56 53 40 27 25 32 42 38 49 56 47 35 29 22 19 20 19 14 15 17 22 57 60 61 82 29 22 20 14 9 8 8 10 19 25 38 50 62 65 53 43
72 65 62 64 64 66 73 78 71 50 45 40 34 34 33 51 53 38 28 22 22 21 21 15 19 25 36 67 48 91 56 22 26 18 12 10 8 12 22 30 50 79 82 70 59 66 60
76 76 82 79 78 75 66 67 68 67 64 62 51 47 36 41 55 49 33 29 26 25 24 16 25 31 39 83 88 96 31 30 28 25 28 28 27 25 56 64 77 74 56 60 62 63 58
78 69 66 57 54 58 58 57 50 47 43 38 39 48 56 45 50 58 51 37 32 31 28 18 29 47 99 97 88 37 28 46 36 38 44 45 60 68 58 65 76 85 79 68 48 54 72
76 68 59 55 54 61 67 62 48 38 33 32 31 36 44 52 54 52 54 52 40 39 30 24 31 96 97 91 45 27 41 51 51 46 40 47 56 72 85 100 100 82 80 100 100 78 60
51 42 58 85 76 53 34 28 27 26 28 27 25 20 20 28 53 63 52 53 42 44 40 55 31 86 87 90 33 35 42 45 61 47 34 42 42 51 64 94 86 90 100 91 96 86 59
52 65 45 36 42 65 83 95 96 93 89 72 65 46 33 22 38 59 58 53 46 43 35 36 41 49 88 91 30 39 42 44 66 30 46 48 43 69 93 100 100 100 100 100 89 100 90
29 40 74 100 100 100 100 100 100 93 98 96 86 79 57 26 38 53 59 54 46 38 40 45 47 85 98 32 32 39 56 60 65 45 45 44 40 53 84 95 97 100 100 100 87 68 76
61 79 93 91 100 100 100 100 96 100 81 84 78 80 68 54 25 48 55 53 44 37 58 42 61 95 47 30 35 47 77 87 95 61 33 36 49 62 94 70 93 100 100 100 73 84 69
95 98 100 100 99 99 96 89 100 84 81 91 91 97 74 61 24 45 49 46 37 42 45 68 96 52 36 28 46 49 68 78 77 64 40 46 65 72 79 68 79 96 91 97 100 100 100
100 100 100 92 97 100 100 99 83 83 96 100 100 100 61 46 24 38 46 38 34 34 81 99 68 38 32 46 49 58 44 50 52 49 45 57 54 71 84 80 99 99 95 92 98 98 98
94 99 100 92 96 96 98 90 97 100 100 100 100 97 56 33 27 31 38 32 53 100 100 84 44 29 43 42 42 65 52 70 85 86 73 84 68 73 83 95 90 100 100 97 98 97 100
100 100 100 98 100 99 85 84 99 100 100 100 91 60 40 29 24 34 29 76 100 100 53 42 28 38 48 65 87 84 96 98 100 67 67 76 67 62 67 81 92 100 100 100 100 93 92
100 100 99 100 98 80 75 94 100 100 100 98 70 21 22 22 30 28 34 100 100 52 36 24 31 38 64 68 85 70 100 98 100 74 60 70 69 87 100 100 100 100 100 100 96 100 100
93 82 64 71 53 60 86 99 100 96 78 14 14 19 25 28 27 31 75 100 100 45 23 31 34 43 52 68 71 73 77 99 97 88 73 74 66 83 94 99 97 91 92 96 82 76 80
51 56 48 44 62 79 99 100 67 40 39 21 23 24 25 25 29 90 100 100 67 36 28 30 33 44 44 64 65 69 82 78 80 91 95 85 74 72 67 74 70 70 43 55 48 44 56
24 20 15 38 75 69 56 35 26 22 22 25 24 39 49 77 100 100 89 36 46 26 31 29 36 44 52 51 55 63 70 75 80 85 85 77 81 84 60 64 54 38 34 25 29 34 31
21 12 12 15 18 19 19 21 26 33 55 64 70 88 99 100 100 95 28 37 32 31 31 34 54 54 47 43 45 46 49 62 67 70 68 66 69 74 70 50 39 29 24 20 17 22 21
69 70 57 53 59 62 69 78 96 97 96 100 100 98 97 100 47 25 31 35 30 36 32 35 40 40 37 38 40 45 52 51 51 52 56 54 56 56 50 41 41 28 27 36 28 20 16
61 72 67 74 78 77 88 93 97 100 98 100 100 100 96 94 23 26 30 24 33 37 38 30 29 27 31 36 40 35 41 47 44 43 45 45 47 46 40 29 22 21 20 22 26 27 32
47 54 64 71 77 87 94 97 96 100 100 99 95 31 16 17 16 18 16 20 23 27 28 26 21 19 24 24 27 30 28 32 35 33 33 34 32 33 31 25 23 20 22 21 16 14 20
42 42 42 53 63 73 85 87 92 93 96 82 52 17 11 10 10 9 10 12 14 18 18 24 18 17 17 18 21 26 24 19 19 20 19 20 20 18 20 24 24 23 21 19 17 15 13
32 34 36 44 44 56 68 76 74 71 65 38 23 11 8 6 6 6 6 8 9 12 20 21 18 15 16 17 22 21 21 19 18 18 18 15 15 13 15 15 14 14 14 15 14 14 16
20 30 32 31 38 47 58 64 64 49 29 12 7 7 6 5 5 5 5 6 6 5 7 9 13 11 12 13 14 12 13 12 12 13 11 10 9 8 8 8 8 7 6 6 5 6 7
6 16 28 31 29 31 42 49 46 42 20 8 6 5 5 4 4 5 5 5 5 5 5 6 6 7 9 10 10 9 9 9 9 8 6 6 6 5 6 6 6 7 8 8 9 8 8
6 6 16 30 29 31 31 33 38 34 18 10 5 5 4 4 4 5 5 5 5 5 6 6 7 6 6 7 7 6 6 7 6 6 6 7 8 8 8 10 9 11 12 12 13 13 13
6 7 7 15 28 29 33 34 32 28 16 8 6 5 5 5 5 5 6 6 7 7 7 8 7 7 7 7 7 7 7 8 8 8 9 9 12 12 13 14 14 14 15 17 18 18 19
Wind_Speed
59 58 55 54 55 54 55 56 56 54 53 54 52 51 50 50 49 49 48 47 46 43 40 42 41 45 44 48 51 47 47 44 38 38 41 43 43 44 49 51 53 54 53 56 56 58 55
59 58 56 56 57 59 56 54 54 56 56 56 52 52 51 50 47 46 47 46 43 42 42 43 40 40 40 45 45 53 49 40 38 39 43 47 48 50 53 53 54 56 56 58 60 59 56
61 60 60 59 60 58 56 56 55 56 57 56 53 51 51 49 49 46 46 45 44 42 43 41 39 40 41 43 49 53 47 37 36 43 47 48 48 50 51 50 51 51 55 60 61 57 59
64 63 64 64 64 64 63 58 56 55 54 54 53 50 49 50 48 47 45 45 46 44 41 42 40 39 39 44 48 50 36 31 33 39 35 36 38 38 35 34 33 37 42 49 49 56 56
64 67 68 69 69 67 63 57 55 55 56 56 57 56 55 52 50 48 46 46 47 43 41 42 41 38 46 40 44 37 26 24 28 31 29 21 20 16 12 12 14 18 21 28 34 41 47
69 72 70 68 68 68 68 67 64 63 62 60 59 59 58 56 53 50 47 46 46 41 40 40 38 38 35 34 37 23 20 20 25 29 19 19 20 15 7 5 6 11 15 17 22 28 33
72 71 74 75 76 76 75 74 71 66 63 59 59 59 59 57 54 51 49 47 45 43 39 39 39 31 35 30 18 18 17 17 22 23 14 21 18 17 7 7 7 13 18 20 16 29 36
75 77 76 76 76 75 72 67 65 61 55 51 47 47 49 49 49 53 53 48 44 42 40 35 37 36 41 26 14 13 16 17 18 14 11 18 18 12 9 8 3 4 7 10 15 21 30
79 78 78 74 68 61 57 55 54 52 51 49 47 44 41 39 41 44 49 47 42 40 39 35 35 34 40 22 9 11 14 12 12 9 8 10 9 8 8 10 13 11 10 8 13 19 25
82 80 74 64 55 48 44 44 40 41 40 39 40 41 39 33 33 36 41 41 41 38 35 29 27 29 14 7 3 10 14 8 8 4 5 9 8 8 13 7 5 10 9 27 20 21 23
70 71 69 55 46 40 35 32 34 31 32 31 27 31 36 34 29 32 36 39 35 33 22 22 22 18 8 4 5 9 11 13 7 3 2 3 10 9 13 15 20 25 26 25 27 20 23
72 68 60 44 37 29 24 19 27 28 16 11 8 14 33 30 29 34 36 32 29 21 16 16 12 6 7 6 5 9 11 12 7 4 6 7 13 10 12 15 14 23 19 19 15 17 18
67 59 49 35 26 22 18 17 15 7 7 8 8 6 35 33 35 32 30 24 16 14 13 15 10 12 12 7 6 9 9 11 15 14 11 9 11 14 22 19 19 18 16 16 17 15 13
57 53 40 32 25 19 16 13 8 10 13 13 13 14 35 31 31 29 24 20 15 12 14 11 14 16 12 8 7 7 9 4 10 11 12 20 20 22 23 22 17 23 18 19 17 17 24
53 50 37 31 25 21 13 7 10 19 23 18 3 16 40 34 29 28 25 23 9 7 20 18 23 18 16 14 11 7 11 9 11 22 21 19 20 20 18 17 20 25 20 21 24 17 18
48 46 35 32 25 13 8 11 22 26 24 8 16 40 42 35 30 26 25 13 15 22 20 27 25 20 18 14 15 15 10 11 13 17 21 23 20 20 11 18 25 24 24 23 22 20 24
47 47 41 32 18 16 18 23 30 26 34 44 50 47 41 35 31 25 25 15 8 22 27 27 26 22 17 15 19 19 19 21 24 21 19 21 20 16 16 22 29 31 31 28 27 26 19
61 62 47 26 29 34 34 35 36 48 50 46 41 40 39 31 25 24 18 13 26 28 31 27 25 21 15 18 21 20 21 22 19 17 17 16 14 11 13 18 18 22 24 24 22 21 16
68 64 51 26 34 31 31 37 41 43 41 37 34 31 32 26 21 16 21 27 28 34 29 29 25 21 21 20 20 20 22 21 20 18 17 15 13 14 14 14 18 18 19 18 17 14 11
64 56 48 47 44 45 43 42 40 36 36 31 22 21 19 19 18 16 22 28 32 34 32 31 27 24 23 23 23 21 20 20 21 20 20 20 19 18 18 19 21 23 15 10 10 7 5
55 52 50 48 47 46 42 37 32 29 26 27 22 18 17 15 17 22 27 28 37 33 35 30 26 25 25 24 22 21 21 18 20 21 21 22 23 22 21 23 22 22 16 13 11 9 7
47 44 42 45 44 42 40 35 33 28 23 21 14 16 16 14 17 25 26 36 35 34 34 29 25 22 20 20 19 19 18 18 19 21 22 21 19 19 20 23 20 17 14 12 6 3 4
40 39 36 37 39 39 41 42 38 36 32 24 22 22 21 19 18 22 24 34 31 33 32 28 22 20 18 16 15 16 16 15 16 15 15 15 14 13 11 10 9 5 5 4 5 1 3
37 33 33 33 34 36 39 39 37 33 30 26 25 24 21 20 18 21 22 27 27 29 29 28 23 18 14 12 13 12 11 12 11 10 8 7 5 5 4 1 4 3 4 7 8 8 7
24 32 26 28 31 32 36 36 34 29 26 24 24 22 19 20 21 22 20 21 24 25 25 24 18 14 12 10 11 9 6 4 1 2 4 6 7 5 6 7 6 7 8 8 7 7 10
20 25 26 21 25 26 32 30 30 22 20 20 21 20 17 20 22 22 21 20 20 22 20 17 15 13 11 10 7 6 4 2 1 4 4 4 2 3 4 3 4 6 8 9 10 9 11
23 19 20 19 23 20 23 23 21 20 16 15 16 16 17 18 22 23 23 21 21 21 19 17 15 12 10 8 6 5 4 5 2 4 3 4 4 3 5 6 5 6 8 10 11 13 15
26 22 22 16 15 18 19 18 18 14 8 8 11 13 15 18 19 19 20 20 20 18 17 15 15 12 12 10 7 7 6 5 4 4 5 5 5 7 8 9 10 11 13 13 15 18 19
27 23 23 24 17 13 12 16 17 12 4 1 5 9 10 12 14 15 15 14 13 12 12 11 11 10 9 7 5 3 2 1 2 3 5 6 9 10 11 12 14 15 17 19 20 22 24
Wind_Direction
303 302 301 300 298 295 293 291 288 282 278 277 275 272 270 272 272 272 273 275 274 277 279 283 288 295 298 303 307 314 315 311 298 293 291 289 288 287 282 275 266 262 256 248 242 238 234
305 304 302 300 299 297 293 290 288 285 282 278 273 270 269 268 267 269 272 272 269 274 279 282 288 291 296 304 308 317 319 310 305 302 297 296 295 288 280 269 262 256 248 244 240 238 233
310 308 306 303 301 296 294 292 288 281 276 273 269 266 266 264 266 265 265 266 266 271 278 279 284 291 299 304 306 314 315 309 310 305 302 298 290 283 279 270 264 257 248 243 239 238 233
313 311 309 307 303 300 297 294 285 278 273 271 268 264 263 264 262 263 263 262 266 270 275 276 281 290 299 301 309 309 309 314 317 314 308 301 296 288 278 268 257 252 251 247 240 241 235
314 310 307 304 301 297 294 289 284 279 273 270 267 265 263 258 258 259 260 261 263 266 270 272 281 292 299 302 312 312 305 321 329 335 339 342 341 321 288 268 256 262 258 252 240 241 239
314 309 305 303 300 296 292 288 283 278 274 270 265 262 259 257 254 253 256 257 260 260 266 269 278 294 300 308 318 303 311 330 332 343 348 360 355 7 353 302 288 266 261 253 245 235 230
316 312 308 304 299 296 294 293 292 289 283 277 270 265 262 255 248 247 250 251 253 256 261 267 275 284 306 318 323 300 314 339 337 341 355 353 351 344 330 333 315 271 264 255 266 220 224
317 311 306 305 304 303 301 298 294 291 286 280 271 265 264 262 253 243 240 245 243 250 255 266 271 274 302 319 311 294 332 340 339 335 320 337 341 325 292 326 326 299 320 261 221 216 211
316 315 313 308 306 305 303 299 296 293 288 282 270 261 258 255 248 243 239 240 238 242 251 260 273 287 292 304 276 314 337 337 340 327 333 355 341 318 327 352 334 328 309 221 158 163 177
324 321 317 315 312 308 305 303 302 300 294 284 268 254 244 242 233 229 231 233 235 238 248 260 277 294 289 260 302 343 343 318 355 326 4 23 1 352 349 19 54 34 84 129 125 135 154
328 324 325 323 317 315 309 305 307 308 305 296 280 249 230 226 218 211 218 225 229 236 251 256 273 289 243 173 354 358 350 338 312 293 255 26 350 1 92 107 92 79 84 109 102 131 150
329 333 334 334 331 326 321 307 317 313 314 358 313 247 208 203 198 202 209 213 221 228 245 264 268 205 157 107 16 359 336 356 1 152 122 84 81 58 106 123 98 84 90 103 120 142 157
334 336 340 348 346 343 336 315 312 317 53 13 0 254 183 179 179 190 198 199 199 209 244 250 184 156 123 83 60 38 35 39 74 113 120 88 115 103 110 108 109 101 90 94 101 130 138
339 344 350 356 353 352 346 336 329 350 352 344 338 327 170 166 169 175 177 175 176 198 241 161 154 123 107 92 74 55 95 83 94 92 113 108 106 121 112 108 95 108 106 115 104 114 113
344 350 357 4 6 6 355 359 13 8 1 352 64 172 163 158 157 162 157 158 156 192 144 142 127 119 100 101 92 112 85 74 71 98 102 109 122 121 109 119 95 88 100 101 94 109 113
350 357 4 6 9 18 38 35 40 35 34 8 117 140 143 139 145 152 156 158 161 129 140 135 127 119 119 98 93 105 77 96 102 102 106 108 106 106 78 89 103 94 100 110 87 106 112
7 14 26 31 66 65 48 56 49 72 81 100 119 129 132 137 140 144 152 169 182 130 139 131 127 128 115 101 101 104 105 108 101 112 103 105 105 102 108 91 94 91 87 92 89 85 96
35 31 22 34 68 64 64 70 78 89 97 110 119 129 129 130 140 147 149 190 136 134 137 139 131 131 123 122 106 101 108 105 111 111 114 119 117 119 110 111 103 99 91 93 88 85 91
33 35 38 68 75 67 73 86 91 96 101 107 112 118 125 136 143 148 129 138 133 137 138 139 131 125 127 125 118 112 107 101 97 99 103 103 107 112 120 112 106 108 96 88 97 102 104
47 47 56 64 69 75 82 87 87 87 89 92 101 106 102 101 120 108 131 133 137 138 142 138 126 125 126 125 123 116 109 103 99 96 95 96 97 101 112 114 114 113 111 106 97 115 136
42 45 55 61 63 67 68 70 64 66 65 72 83 78 74 56 90 115 127 131 136 138 139 134 133 129 128 128 122 113 106 101 95 91 86 84 85 87 92 98 105 114 121 122 131 159 194
48 44 48 53 52 53 54 57 56 55 58 53 54 34 46 65 92 116 127 138 142 142 141 142 136 133 136 136 123 116 107 104 100 95 91 87 81 79 84 94 100 101 97 92 119 158 202
32 33 37 38 40 42 41 39 37 39 38 42 43 46 52 55 89 107 121 144 147 147 146 149 141 131 128 129 124 122 115 113 113 99 91 88 81 72 66 84 93 84 45 22 48 123 229
14 20 23 28 30 33 34 34 34 31 34 38 38 44 57 72 84 101 116 142 150 156 159 159 155 151 144 134 135 134 127 116 110 116 107 94 80 44 1 270 309 306 297 309 309 307 274
355 6 13 25 23 26 24 26 27 26 32 39 42 44 64 87 95 101 113 130 134 148 160 169 175 164 152 144 152 156 154 168 186 324 328 328 320 319 307 293 291 292 292 296 293 290 278
353 350 351 350 13 17 17 20 20 23 34 49 51 60 73 94 102 106 112 122 130 128 140 154 159 160 166 174 190 203 220 231 316 308 313 299 302 306 297 334 338 344 341 338 331 322 314
340 335 334 331 334 353 3 9 8 20 37 52 61 71 83 100 105 107 110 116 119 116 119 126 136 140 142 152 162 173 154 116 102 56 69 51 53 17 5 1 349 343 330 325 315 305 307
346 315 303 308 311 324 334 336 343 357 25 57 83 86 94 99 106 108 106 106 109 110 110 114 117 115 118 123 115 111 100 90 75 49 9 350 338 333 324 320 322 317 313 309 306 301 299
350 310 284 280 281 294 317 318 312 309 313 91 120 113 112 110 112 111 110 106 103 101 105 106 107 102 99 101 97 98 84 80 305 311 310 313 310 310 308 307 305 305 303 300 299 297 295